Orbital Elements at Epoch 2459000.5 (2020-May-31.0) TDB
Reference: JPL 34 (heliocentric ecliptic J2000)
Element | Value | Uncertainty (1-sigma) | Units |
e | .5311968388216255 | 1.6119e-07 | |
a | .7060502517489146 | 1.2409e-08 | au |
q | .3309985899706783 | 1.1664e-07 | au |
i | 16.14315954500591 | 3.3576e-05 | deg |
node | 159.7041442903596 | 4.8895e-05 | deg |
peri | 324.6192788628226 | 3.8965e-05 | deg |
M | 237.3391697638532 | 5.0369e-05 | deg |
tp | 2459074.333803999050 (2020-Aug-12.83380400) | 3.1714e-05 | TDB |
period | 216.6964742410907 0.59 | 5.713e-06 1.564e-08 | d yr |
n | 1.661309909451843 | 4.3799e-08 | deg/d |
Q | 1.081101913527151 | 1.9001e-08 | au |
|
| | Orbit Determination Parameters
Additional Information
|